[[{"header":{"parameterUnit":"m.s-1","parameterCategory":1,"la1":30.2991,"la2":30.254,"lo1":-89.0895,"lo2":-89.0444,"dy":0.0017,"dx":0.0017,"nx":28,"ny":28,"refTime":"2023-11-03T09:00:00:Z","depth":0,"parameterNumber":2,"parameterNumberName":"U-component_of_WINDS"},"data":[0,0,0,0,0,0,0,0,0,0,0,0,0,0,0,0,0,0,0,0,0,0,0,0,0,0,0,0,0,0,0,0,0,0,0,0,0,0,0,0,0,0,0,0,0,0,0,0,0,0,0,0,0,0,0,0,0,0,0.6651,0.665,0,0.6586,0.6585,0.6584,0.6528,0.6527,0.6527,0.6526,0.6458,0.6457,0.6456,0,0,0,0,0,0,0,0,0,0,0,0,0,0.6726,0.6725,0.6651,0.665,0.665,0.6586,0.6585,0.6584,0.6528,0.6527,0.6527,0.6526,0.6459,0.6457,0.6456,0,0,0,0,0,0,0,0,0,0,0,0,0,0.668,0.6724,0.6651,0.6614,0.661,0.6586,0.6585,0.6584,0.6528,0.6527,0.6526,0.6526,0.6459,0.6457,0.6456,0.6463,0,0,0.645,0.6449,0,0,0,0,0,0,0,0,0.6683,0.6677,0.662,0.6617,0.6612,0.6564,0.6586,0.6543,0.6529,0.6559,0.6526,0.6525,0.6494,0.6489,0.6479,0.646,0.6457,0.645,0.6449,0.6448,0.6447,0,0,0,0,0,0,0,0.6686,0.668,0.6625,0.662,0.6614,0.66,0.6592,0.6578,0.6533,0.6557,0.6552,0.6545,0.6492,0.6481,0.6477,0.6456,0.645,0.6448,0.6447,0.6446,0.6438,0.6439,0,0,0,0,0,0,0.6695,0.6683,0.6627,0.6623,0.6646,0.6599,0.6591,0.658,0.6533,0.6525,0.6546,0.6543,0.6485,0.6479,0.6475,0.6479,0.6448,0.6446,0.6445,0.6437,0.6438,0.6439,0,0,0,0,0,0,0.6697,0.6691,0.663,0.6652,0.6643,0.6599,0.6588,0.658,0.6569,0.6525,0.6517,0.6544,0.6484,0.6477,0.6466,0.6476,0.6445,0.6444,0.6436,0.6437,0.6439,0.6489,0,0,0,0,0,0,0.6699,0.6692,0.6695,0.6652,0.6642,0.6623,0.6588,0.6579,0.6566,0.6561,0.652,0.6513,0.6482,0.6469,0.6464,0.6473,0.6442,0.6435,0.6437,0.6438,0.6486,0.6492,0.6497,0,0,0,0,0,0.6702,0.6712,0.6695,0.6689,0.6645,0.6624,0.6618,0.6583,0.6567,0.6569,0.6541,0.6514,0.6476,0.6468,0.6463,0.6471,0.6434,0.6436,0.6438,0.6484,0.6491,0.6497,0,0,0,0,0,0,0.6756,0.6705,0.6687,0.6683,0.6658,0.6615,0.6616,0.6592,0.6571,0.6567,0.6525,0.6516,0.6509,0.6489,0.6482,0.6475,0.6451,0.6452,0.6488,0.6494,0.65,0.6504,0.6441,0,0,0,0,0,0.6767,0.6755,0.6711,0.6712,0.6701,0.6661,0.665,0.6626,0.6598,0.6588,0.6558,0.6533,0.6514,0.6503,0.6485,0.6483,0.6473,0.6486,0.6491,0.6496,0.6497,0.6493,0.6498,0.6446,0.6446,0.6446,0,0,0.679,0.6761,0.6756,0.6722,0.67,0.6687,0.6652,0.6641,0.6631,0.6586,0.6573,0.6551,0.6519,0.6513,0.6509,0.6496,0.6509,0.6498,0.6502,0.6501,0.6496,0.6501,0.6505,0.6447,0.6447,0.6447,0,0,0.6826,0.6804,0.6801,0.678,0.6747,0.672,0.672,0.668,0.6663,0.665,0.6616,0.6603,0.6573,0.6552,0.6537,0.6564,0.6538,0.6559,0.6586,0.6583,0.6587,0.6591,0.6599,0.6603,0.656,0.656,0.656,0,0.6859,0.6839,0.6803,0.6793,0.6778,0.6737,0.6734,0.6715,0.6678,0.6668,0.6654,0.6615,0.6591,0.6578,0.6585,0.6575,0.6572,0.6563,0.659,0.6593,0.6595,0.6603,0.6606,0.6563,0.6563,0.6562,0.6562,0,0.6881,0.6868,0.6869,0.6834,0.682,0.6814,0.6775,0.6765,0.6742,0.6716,0.6703,0.6672,0.6646,0.6641,0.6619,0.6625,0.6618,0.6598,0.6573,0.6604,0.661,0.6613,0.6567,0.6566,0.6565,0.6564,0,0,0.6948,0.6893,0.6894,0.6877,0.6838,0.6826,0.6818,0.6792,0.6784,0.676,0.675,0.6726,0.6706,0.669,0.6664,0.6662,0.6683,0.6641,0.6639,0.6649,0.6687,0.6702,0.6706,0.6666,0.6667,0.6667,0.669,0,0.6977,0.6959,0.6925,0.6918,0.6905,0.6865,0.6857,0.6832,0.6808,0.6793,0.6766,0.6749,0.6725,0.6714,0.671,0.6682,0.669,0.668,0.6656,0.6656,0.6664,0.671,0.6725,0.6748,0.6692,0.6692,0.6693,0,0.7007,0.6985,0.6977,0.6937,0.693,0.6924,0.6897,0.6884,0.6854,0.6836,0.6817,0.6789,0.6777,0.6755,0.6737,0.6731,0.6719,0.6703,0.6703,0.6699,0.6675,0.6705,0.6755,0.6758,0.6696,0.6696,0.6696,0,0.7056,0.7024,0.7014,0.7001,0.6956,0.6952,0.6933,0.6902,0.6888,0.6865,0.6855,0.6831,0.6817,0.6799,0.6764,0.6752,0.6749,0.6725,0.6734,0.6735,0.6734,0.6734,0.6781,0.6729,0.6729,0.6729,0.6729,0,0.709,0.7086,0.7035,0.7029,0.7023,0.6985,0.698,0.6957,0.6929,0.6918,0.6882,0.6872,0.6827,0.6811,0.6784,0.6773,0.6767,0.6752,0.6745,0.6754,0.6756,0.6746,0.6743,0.673,0.673,0.6729,0.6729,0,0.7143,0.7109,0.7096,0.7053,0.7043,0.704,0.7003,0.6995,0.6969,0.6955,0.6949,0.6908,0.6887,0.6851,0.6821,0.6802,0.6796,0.6784,0.6806,0.6801,0.6811,0.681,0.6852,0.6855,0.6802,0.6803,0.6803,0,0.7167,0.7163,0.712,0.711,0.7092,0.7076,0.7061,0.7023,0.701,0.6975,0.6971,0.6948,0.6927,0.6896,0.6863,0.6839,0.6825,0.6842,0.6822,0.6831,0.6824,0.6824,0.6823,0.6846,0.6847,0.6847,0.6848,0,0.7212,0.7195,0.7177,0.7152,0.7136,0.7115,0.7091,0.7085,0.7041,0.7028,0.7006,0.699,0.6959,0.6936,0.6907,0.6886,0.6859,0.6855,0.6855,0.6865,0.6877,0.6869,0.6817,0.6854,0.6853,0.6853,0.6852,0.6852,0.725,0.7244,0.7213,0.7193,0.7171,0.715,0.7141,0.7113,0.7095,0.7066,0.7045,0.7025,0.6994,0.6952,0.6933,0.6916,0.6904,0.6905,0.6905,0.6906,0.6909,0.6881,0.6911,0.6911,0.6911,0.6911,0.691,0,0.7292,0.727,0.7252,0.7221,0.7205,0.7182,0.7155,0.7143,0.7126,0.71,0.708,0.7055,0.7032,0.6997,0.6971,0.6965,0.6952,0.6959,0.6958,0.6954,0.6922,0.6924,0.697,0.697,0.697,0.697,0.697,0.697,0.7312,0.7301,0.728,0.7257,0.7235,0.7215,0.7201,0.7181,0.716,0.7134,0.7115,0.7093,0.7062,0.7034,0.7012,0.7002,0.6994,0.7005,0.6991,0.6962,0.6956,0.6951,0.6952,0.7004,0.7004,0.7024,0.7024,0.7024]},{"header":{"parameterUnit":"m.s-1","parameterCategory":1,"la1":30.2991,"la2":30.254,"lo1":-89.0895,"lo2":-89.0444,"dy":0.0017,"dx":0.0017,"nx":28,"ny":28,"refTime":"2023-11-03T09:00:00:Z","depth":0,"parameterNumber":3,"parameterNumberName":"V-component_of_WINDS"},"data":[0,0,0,0,0,0,0,0,0,0,0,0,0,0,0,0,0,0,0,0,0,0,0,0,0,0,0,0,0,0,0,0,0,0,0,0,0,0,0,0,0,0,0,0,0,0,0,0,0,0,0,0,0,0,0,0,0,0,-1.8945,-1.8946,0,-1.9033,-1.9034,-1.9035,-1.9057,-1.9056,-1.9056,-1.9055,-1.9145,-1.9148,-1.9151,0,0,0,0,0,0,0,0,0,0,0,0,0,-1.8796,-1.8799,-1.8945,-1.8946,-1.8947,-1.9033,-1.9034,-1.9036,-1.9057,-1.9056,-1.9056,-1.9055,-1.9144,-1.9148,-1.9151,0,0,0,0,0,0,0,0,0,0,0,0,0,-1.887,-1.88,-1.8945,-1.8969,-1.8972,-1.9033,-1.9034,-1.9036,-1.9057,-1.9056,-1.9056,-1.9055,-1.9143,-1.9147,-1.9152,-1.9196,0,0,-1.9165,-1.9167,0,0,0,0,0,0,0,0,-1.8866,-1.8876,-1.8964,-1.8967,-1.897,-1.9033,-1.9015,-1.9089,-1.9058,-1.9025,-1.9055,-1.9054,-1.9109,-1.9116,-1.9134,-1.92,-1.9204,-1.9165,-1.9168,-1.917,-1.9171,0,0,0,0,0,0,0,-1.8861,-1.8872,-1.898,-1.8965,-1.8969,-1.8975,-1.8984,-1.9029,-1.907,-1.9028,-1.9029,-1.9039,-1.911,-1.913,-1.9136,-1.9205,-1.9165,-1.9169,-1.9172,-1.9173,-1.9312,-1.9313,0,0,0,0,0,0,-1.8852,-1.8868,-1.8977,-1.8983,-1.8915,-1.8978,-1.8989,-1.9014,-1.907,-1.9078,-1.904,-1.904,-1.9123,-1.9131,-1.914,-1.9195,-1.917,-1.9174,-1.9176,-1.9311,-1.9312,-1.9314,0,0,0,0,0,0,-1.8848,-1.8861,-1.8974,-1.8926,-1.894,-1.8982,-1.901,-1.9016,-1.9036,-1.9079,-1.9087,-1.9053,-1.9122,-1.9133,-1.9182,-1.9199,-1.9176,-1.918,-1.931,-1.9312,-1.9313,-1.9307,0,0,0,0,0,0,-1.8844,-1.886,-1.8877,-1.8926,-1.8943,-1.9014,-1.9011,-1.9019,-1.9043,-1.9044,-1.9093,-1.91,-1.9123,-1.9175,-1.9186,-1.9204,-1.9183,-1.9309,-1.9311,-1.9312,-1.9306,-1.9308,-1.931,0,0,0,0,0,-1.8839,-1.8871,-1.8878,-1.8891,-1.8965,-1.9015,-1.9025,-1.905,-1.9045,-1.9062,-1.909,-1.9099,-1.9195,-1.918,-1.9192,-1.9212,-1.9308,-1.931,-1.9312,-1.9305,-1.9308,-1.931,0,0,0,0,0,0,-1.8823,-1.8878,-1.8886,-1.8935,-1.897,-1.9019,-1.9042,-1.9052,-1.9089,-1.9088,-1.9118,-1.9129,-1.9175,-1.9199,-1.9181,-1.9258,-1.9251,-1.9256,-1.9241,-1.9244,-1.9246,-1.924,-1.9187,0,0,0,0,0,-1.8825,-1.8861,-1.8908,-1.8947,-1.8964,-1.9,-1.9023,-1.9039,-1.9077,-1.9091,-1.9123,-1.9159,-1.9198,-1.9222,-1.926,-1.9309,-1.932,-1.9329,-1.9331,-1.9333,-1.9337,-1.9365,-1.937,-1.9321,-1.9321,-1.9321,0,0,-1.8831,-1.8865,-1.8886,-1.8945,-1.8974,-1.9011,-1.9012,-1.9051,-1.9079,-1.9097,-1.9145,-1.917,-1.9212,-1.9261,-1.9284,-1.9282,-1.9353,-1.9336,-1.9337,-1.934,-1.9368,-1.9373,-1.9377,-1.9323,-1.9323,-1.9322,0,0,-1.8859,-1.8889,-1.8925,-1.8954,-1.8999,-1.9022,-1.9031,-1.9078,-1.9095,-1.9143,-1.9158,-1.9192,-1.9257,-1.9287,-1.9311,-1.9351,-1.9361,-1.9363,-1.9374,-1.9401,-1.9405,-1.9409,-1.9424,-1.9428,-1.9367,-1.9367,-1.9367,0,-1.886,-1.8916,-1.8942,-1.8981,-1.9006,-1.9025,-1.9063,-1.909,-1.9144,-1.9161,-1.9158,-1.9241,-1.9271,-1.9327,-1.9337,-1.9356,-1.9367,-1.9357,-1.9402,-1.9406,-1.941,-1.9424,-1.943,-1.9367,-1.9367,-1.9367,-1.9367,0,-1.8915,-1.8954,-1.8978,-1.903,-1.9058,-1.9096,-1.9128,-1.9154,-1.9168,-1.9192,-1.9241,-1.9278,-1.9324,-1.9338,-1.9352,-1.9397,-1.9395,-1.9397,-1.939,-1.9414,-1.9428,-1.9434,-1.9367,-1.9367,-1.9367,-1.9367,0,0,-1.8935,-1.9002,-1.9011,-1.9035,-1.9086,-1.9116,-1.9155,-1.92,-1.9222,-1.9258,-1.9292,-1.9347,-1.935,-1.9377,-1.9394,-1.9418,-1.9449,-1.9417,-1.9419,-1.9422,-1.9501,-1.9499,-1.9505,-1.9455,-1.9456,-1.9457,-1.9498,0,-1.897,-1.904,-1.9065,-1.9123,-1.9159,-1.9178,-1.9212,-1.9247,-1.927,-1.9305,-1.9331,-1.937,-1.937,-1.9386,-1.9411,-1.944,-1.9465,-1.9437,-1.9487,-1.9488,-1.9476,-1.9513,-1.9511,-1.9547,-1.9503,-1.9504,-1.9505,0,-1.902,-1.9058,-1.9119,-1.9166,-1.9182,-1.9212,-1.9256,-1.9288,-1.9329,-1.9344,-1.9375,-1.9391,-1.9432,-1.9424,-1.9481,-1.9462,-1.9484,-1.9501,-1.9503,-1.9509,-1.9498,-1.952,-1.9559,-1.9565,-1.9514,-1.9513,-1.9513,0,-1.9029,-1.9096,-1.9141,-1.9161,-1.9217,-1.9237,-1.9261,-1.9301,-1.9326,-1.9365,-1.9382,-1.9424,-1.9448,-1.948,-1.9508,-1.9499,-1.9563,-1.9557,-1.9578,-1.9577,-1.959,-1.9589,-1.9634,-1.9604,-1.9604,-1.9604,-1.9604,0,-1.9066,-1.9102,-1.9146,-1.9174,-1.9216,-1.9245,-1.9285,-1.9311,-1.9346,-1.9379,-1.9398,-1.9429,-1.9463,-1.9499,-1.952,-1.9565,-1.9576,-1.959,-1.9595,-1.9588,-1.9586,-1.9603,-1.9601,-1.9606,-1.9605,-1.9605,-1.9605,0,-1.9083,-1.9113,-1.9164,-1.9213,-1.9226,-1.9255,-1.9297,-1.9325,-1.9349,-1.9391,-1.9403,-1.9442,-1.9485,-1.9515,-1.957,-1.9585,-1.9633,-1.9639,-1.962,-1.9623,-1.9642,-1.964,-1.97,-1.9709,-1.9672,-1.9672,-1.9673,0,-1.9104,-1.9133,-1.9185,-1.9208,-1.9233,-1.9271,-1.9297,-1.9327,-1.9354,-1.9402,-1.9424,-1.9469,-1.9506,-1.9573,-1.9606,-1.9649,-1.9655,-1.9673,-1.9662,-1.9654,-1.9656,-1.9654,-1.9657,-1.9675,-1.9675,-1.9675,-1.9676,0,-1.9138,-1.9152,-1.919,-1.9233,-1.9264,-1.93,-1.9335,-1.9354,-1.939,-1.9419,-1.9463,-1.9492,-1.9549,-1.9592,-1.9638,-1.9663,-1.9676,-1.9679,-1.9686,-1.9679,-1.9668,-1.9675,-1.9625,-1.9677,-1.9677,-1.9677,-1.9677,-1.9677,-1.9159,-1.9185,-1.9226,-1.9268,-1.9298,-1.9331,-1.9359,-1.9388,-1.9425,-1.9474,-1.9489,-1.9535,-1.9575,-1.9638,-1.9664,-1.9701,-1.97,-1.971,-1.9713,-1.9715,-1.9715,-1.9662,-1.9709,-1.9709,-1.9709,-1.9709,-1.9709,0,-1.9194,-1.9222,-1.9259,-1.9309,-1.9342,-1.9351,-1.9391,-1.9417,-1.9458,-1.9494,-1.953,-1.9581,-1.9624,-1.9661,-1.9705,-1.9728,-1.9735,-1.9738,-1.9737,-1.9743,-1.9713,-1.9702,-1.9732,-1.9732,-1.9732,-1.9732,-1.9732,-1.9732,-1.9217,-1.9263,-1.9281,-1.9343,-1.937,-1.9415,-1.9437,-1.9468,-1.9497,-1.9554,-1.9589,-1.9613,-1.965,-1.9697,-1.9737,-1.9747,-1.9763,-1.9765,-1.9776,-1.9747,-1.9745,-1.9742,-1.9732,-1.9768,-1.9768,-1.9804,-1.9804,-1.9804]}]]